Watertown, SD

5:48 AM CDT on June 25, 2017 (GMT -0500)
Watertown Municipal

Weather History for KATY - November, 2012

Change the Weather History Date:

Sunday, November 25, 2012

  Actual Average Record
Temperature  
Mean Temperature 25 °F 24 °F  
Max Temperature 31 °F 33 °F 66 °F (1960)
Min Temperature 18 °F 15 °F -19 °F (1977)
Degree Days  
Heating Degree Days 40 41  
Month to date heating degree days 783 844  
Since 1 July heating degree days 1671 1728  
Cooling Degree Days 0 0  
Month to date cooling degree days 0 0  
Year to date cooling degree days 788 515  
Moisture  
Dew Point 20 °F    
Average Humidity 78    
Maximum Humidity 92    
Minimum Humidity 63    
Precipitation  
Precipitation 0.00 in 0.02 in 0.27 in (1959)
Month to date precipitation 0.22 0.66  
Year to date precipitation 17.46 21.45  
Snow  
Snow 0.00 in - - ()
Month to date snowfall T  
Since 1 July snowfall 0.5  
Snow Depth 0.00 in    
Sea Level Pressure  
Sea Level Pressure 30.06 in    
Wind  
Wind Speed 12 mph (NNW)    
Max Wind Speed 22 mph    
Max Gust Speed 29 mph    
Visibility 10 miles    
Events      
T = Trace of Precipitation, MM = Missing Value Source: NWS Daily Summary

Daily Weather History Graph

Daily Weather History Graph

Search for Another Location

Airport or City:

Trip Planner

Search our weather history database for the weather conditions in past years. The results will help you decide how hot, cold, wet, or windy it might be!

Date:

Astronomy

Nov. 25, 2012 Rise Set
Actual Time 7:39 AM CST 4:51 PM CST
Civil Twilight 7:07 AM CST 5:24 PM CST
Nautical Twilight 6:30 AM CST 6:00 PM CST
Astronomical Twilight 5:55 AM CST 6:35 PM CST
Moon 3:13 PM CST 4:49 AM CST
Length of Visible Light 10h 16m
Length of Day
9h 11m
Waxing Gibbous, 93% of the Moon is Illuminated
Nov 25
Waxing Gibbous
Nov 28
Full
Dec 6
Last Quarter
Dec 13
New
Dec 19
First Quarter

Hourly Weather History & Observations

Time (CST) Temp. Windchill Dew Point Humidity Pressure Visibility Wind Dir Wind Speed Gust Speed Precip Events Conditions
12:53 AM 30.9 °F 20.7 °F 27.0 °F 85% 29.93 in 10.0 mi NNW 13.8 mph - N/A   Overcast
1:32 AM 30.2 °F 18.9 °F 26.6 °F 86% 29.87 in 10.0 mi NNW 16.1 mph 24.2 mph N/A   Overcast
1:53 AM 28.9 °F 18.2 °F 26.1 °F 89% 29.94 in 10.0 mi North 13.8 mph - N/A   Overcast
2:53 AM 27.0 °F 14.3 °F 23.0 °F 85% 29.97 in 10.0 mi NNW 17.3 mph - N/A   Overcast
3:53 AM 26.1 °F 12.3 °F 21.9 °F 84% 29.99 in 10.0 mi NNW 19.6 mph 26.5 mph N/A   Overcast
4:53 AM 26.1 °F 15.6 °F 21.9 °F 84% 29.99 in 10.0 mi NNW 11.5 mph - N/A   Overcast
5:53 AM 25.0 °F 14.8 °F 21.0 °F 85% 30.00 in 10.0 mi NNW 10.4 mph - N/A   Overcast
6:53 AM 23.0 °F 12.4 °F 19.9 °F 88% 30.02 in 10.0 mi North 10.4 mph - N/A   Overcast
7:53 AM 21.9 °F 10.4 °F 19.0 °F 89% 30.04 in 10.0 mi NW 11.5 mph - N/A   Overcast
8:53 AM 23.0 °F 13.9 °F 19.9 °F 88% 30.06 in 10.0 mi NW 8.1 mph - N/A   Overcast
9:53 AM 24.1 °F 14.4 °F 19.9 °F 84% 30.06 in 10.0 mi NW 9.2 mph - N/A   Overcast
10:53 AM 26.1 °F 18.4 °F 19.9 °F 78% 30.06 in 10.0 mi Variable 6.9 mph - N/A   Scattered Clouds
11:53 AM 30.0 °F 20.0 °F 19.9 °F 66% 30.06 in 10.0 mi NNW 12.7 mph - N/A   Scattered Clouds
12:19 PM 30.2 °F 19.3 °F 21.2 °F 69% 29.99 in 10.0 mi North 15.0 mph - N/A   Mostly Cloudy
12:53 PM 28.9 °F 16.9 °F 21.0 °F 72% 30.06 in 10.0 mi NW 17.3 mph - N/A   Overcast
1:36 PM 28.4 °F 19.1 °F 21.2 °F 74% 29.99 in 10.0 mi WNW 10.4 mph - N/A   Scattered Clouds
1:53 PM 30.0 °F 21.7 °F 21.0 °F 69% 30.05 in 10.0 mi NW 9.2 mph - N/A   Clear
2:27 PM 30.2 °F 19.3 °F 21.2 °F 69% 29.99 in 10.0 mi NNW 15.0 mph - N/A   Mostly Cloudy
2:53 PM 30.0 °F 19.1 °F 21.0 °F 69% 30.06 in 10.0 mi NNW 15.0 mph - N/A   Mostly Cloudy
3:06 PM 30.2 °F 18.9 °F 21.2 °F 69% 29.99 in 10.0 mi NNW 16.1 mph - N/A   Scattered Clouds
3:22 PM 30.2 °F 19.8 °F 21.2 °F 69% 29.99 in 10.0 mi NNW 13.8 mph - N/A   Mostly Cloudy
3:53 PM 30.0 °F 21.1 °F 21.0 °F 69% 30.07 in 10.0 mi NNW 10.4 mph - N/A   Overcast
4:53 PM 28.9 °F 21.1 °F 21.0 °F 72% 30.09 in 10.0 mi WNW 8.1 mph - N/A   Overcast
5:53 PM 28.9 °F 22.8 °F 21.9 °F 75% 30.11 in 10.0 mi WNW 5.8 mph - N/A   Overcast
6:53 PM 27.0 °F 18.0 °F 18.0 °F 69% 30.14 in 10.0 mi North 9.2 mph - N/A   Overcast
7:53 PM 26.1 °F 15.6 °F 17.1 °F 69% 30.16 in 10.0 mi NNW 11.5 mph - N/A   Overcast
8:53 PM 25.0 °F 14.2 °F 16.0 °F 69% 30.19 in 10.0 mi North 11.5 mph - N/A   Overcast
9:20 PM 24.8 °F 14.0 °F 17.6 °F 74% 30.13 in 10.0 mi NNW 11.5 mph - N/A   Overcast
9:44 PM 21.2 °F 9.5 °F 17.6 °F 86% 30.14 in 10.0 mi NNE 11.5 mph - N/A   Overcast
9:53 PM 21.0 °F 9.3 °F 17.1 °F 85% 30.23 in 10.0 mi NE 11.5 mph - N/A   Overcast
10:53 PM 19.0 °F 6.8 °F 15.1 °F 85% 30.26 in 10.0 mi NNE 11.5 mph - N/A   Overcast
11:49 PM 17.6 °F 5.7 °F 12.2 °F 79% 30.20 in 10.0 mi NNE 10.4 mph - N/A   Overcast
11:53 PM 18.0 °F 5.4 °F 12.0 °F 78% 30.29 in 10.0 mi North 11.5 mph - N/A   Overcast